Location: Brissac
(47.3500°N, 0.4500°W)
Time: 15:14:38
(UTC+02:00)

ISS - Pass Details

Date: 18 May 2021
Orbit: 419 x 422 km, 51.6° (Epoch: 25 June)

Event Time Altitude Azimuth Distance (km) Brightness Sun altitude
Rises 02:43:43 0° 294° (WNW) 2,375 0.2 -22.3°
Reaches altitude 10° 02:45:50 10° 296° (WNW) 1,509 -0.8 -22.2°
Enters shadow 02:47:45 31° 305° (NW) 773 -2.3 -22.2°
